TimeCST,TemperatureF,Dew PointF,Humidity,Sea Level PressureIn,VisibilityMPH,Wind Direction,Wind SpeedMPH,Gust SpeedMPH,PrecipitationIn,Events,Conditions,WindDirDegrees,DateUTC
12:17 AM,59.0,57.2,94,29.81,1.5,South,5.8,-,N/A,,Partly Cloudy,170,2006-01-01 06:17:00
12:27 AM,62.6,60.8,94,29.81,3.0,South,8.1,-,N/A,,Scattered Clouds,170,2006-01-01 06:27:00
12:34 AM,62.6,60.8,94,29.81,4.0,South,10.4,-,N/A,,Mostly Cloudy,180,2006-01-01 06:34:00
12:53 AM,64.0,61.0,90,29.83,5.0,South,8.1,-,N/A,,Overcast,180,2006-01-01 06:53:00
1:53 AM,64.0,61.0,90,29.83,6.0,South,8.1,-,N/A,,Overcast,170,2006-01-01 07:53:00
2:53 AM,64.9,61.0,87,29.82,9.0,South,9.2,-,N/A,,Overcast,190,2006-01-01 08:53:00
3:29 AM,64.4,60.8,88,29.81,10.0,South,8.1,-,N/A,,Overcast,180,2006-01-01 09:29:00
3:53 AM,64.9,61.0,87,29.81,10.0,South,8.1,-,N/A,,Overcast,180,2006-01-01 09:53:00
4:53 AM,64.9,60.1,84,29.83,10.0,South,9.2,-,N/A,,Overcast,190,2006-01-01 10:53:00
6:23 AM,64.4,60.8,88,29.82,10.0,South,8.1,-,N/A,,Overcast,180,2006-01-01 12:23:00
6:53 AM,64.9,61.0,87,29.82,9.0,South,9.2,-,N/A,,Overcast,180,2006-01-01 12:53:00
7:53 AM,64.0,61.0,90,29.83,8.0,SSE,9.2,-,N/A,,Overcast,150,2006-01-01 13:53:00
8:11 AM,64.4,60.8,88,29.82,8.0,SE,5.8,-,N/A,,Overcast,140,2006-01-01 14:11:00
8:41 AM,64.4,60.8,88,29.83,9.0,SE,5.8,-,N/A,,Overcast,140,2006-01-01 14:41:00
8:53 AM,64.9,61.0,87,29.84,9.0,SE,5.8,-,N/A,,Overcast,140,2006-01-01 14:53:00
9:41 AM,66.2,60.8,83,29.83,10.0,SE,8.1,-,N/A,,Overcast,140,2006-01-01 15:41:00
9:53 AM,66.9,62.1,84,29.84,10.0,SSE,6.9,-,N/A,,Overcast,160,2006-01-01 15:53:00
10:53 AM,70.0,64.0,81,29.82,10.0,South,8.1,-,N/A,,Overcast,180,2006-01-01 16:53:00
11:53 AM,71.1,64.9,81,29.78,9.0,South,11.5,-,N/A,,Overcast,180,2006-01-01 17:53:00
12:46 PM,71.6,66.2,83,29.73,8.0,South,15.0,-,N/A,,Overcast,180,2006-01-01 18:46:00
12:53 PM,72.0,66.0,81,29.74,8.0,SSW,13.8,-,N/A,,Overcast,200,2006-01-01 18:53:00
1:43 PM,73.4,66.2,78,29.71,8.0,SSW,10.4,-,N/A,,Overcast,200,2006-01-01 19:43:00
1:53 PM,73.9,66.0,76,29.71,8.0,SSW,11.5,-,N/A,,Overcast,200,2006-01-01 19:53:00
2:53 PM,78.1,66.0,66,29.69,10.0,SSW,12.7,-,N/A,,Mostly Cloudy,200,2006-01-01 20:53:00
3:10 PM,77.0,64.4,65,29.68,10.0,South,13.8,21.9,N/A,,Mostly Cloudy,190,2006-01-01 21:10:00
3:22 PM,78.8,64.4,61,29.68,10.0,SSW,17.3,-,N/A,,Scattered Clouds,200,2006-01-01 21:22:00
3:53 PM,77.0,64.9,66,29.69,10.0,South,19.6,-,N/A,,Scattered Clouds,190,2006-01-01 21:53:00
4:53 PM,75.0,64.0,69,29.70,9.0,South,16.1,-,N/A,,Mostly Cloudy,190,2006-01-01 22:53:00
7:53 PM,72.0,64.9,78,29.71,8.0,SSW,16.1,-,N/A,,Mostly Cloudy,200,2006-01-02 01:53:00
8:53 PM,72.0,64.9,78,29.70,8.0,South,12.7,-,N/A,,Mostly Cloudy,190,2006-01-02 02:53:00
9:53 PM,72.0,64.9,78,29.73,7.0,South,18.4,26.5,N/A,,Mostly Cloudy,190,2006-01-02 03:53:00
10:28 PM,71.6,64.4,78,29.73,7.0,SSW,12.7,-,N/A,,Mostly Cloudy,200,2006-01-02 04:28:00
10:53 PM,72.0,64.0,76,29.75,7.0,SSW,13.8,-,N/A,,Overcast,210,2006-01-02 04:53:00
11:53 PM,71.1,63.0,75,29.75,6.0,SSW,12.7,23.0,N/A,,Haze,200,2006-01-02 05:53:00